www.pogodaiklimat.ru

Погода и климат >> Архив погоды >> Норвегия >> Аэропорт Орста-Волда


ПОГОДА в Аэропорту Орста-Волда

  • Прогноз погоды в Аэропорту Орста-Волда
  • Монитор погоды в Аэропорту Орста-Волда

АРХИВ ПОГОДЫ в Аэропорту Орста-Волда

Время (UTC), дата Ветер
(напр.,м/с)
 
Видим.   Явления Облачность Т
(С)
Тd
(С)
f
(%)
Тe
(С)
Тes
(С)
Комфортность P
(гПа)
Po
(гПа)
Тmin
(С)
Tmax
(С)
R
(мм)
R24
(мм)
S
(см)
04 17.03 ЮВ 1
{5}
н/о н/о -0.7 -1.1 97 -3 -3 980.7 971.6
05 17.03 штиль 0
{2}
н/о н/о -0.8 -1.2 97 -2 -2 979.7 970.6
06 17.03 штиль 0
{5}
н/о н/о +1.0 -1.5 83 -0 -0 979.2 970.2 -1.9 +1.3
07 17.03 В 5
{9}
н/о н/о +4.2 -4.7 52 -0 -0 978.7 969.9
08 17.03 В 4
{8}
н/о н/о +4.6 -5.6 48 +1 +1 978.6 969.8
09 17.03 В 4
{9}
н/о н/о +4.7 -6.4 44 +1 +1 978.5 969.7
10 17.03 СЗ 2
{7}
н/о н/о +5.0 -6.0 45 +3 +3 978.4 969.6
11 17.03 СВ 5
{9}
н/о н/о +4.9 -5.7 46 +1 +1 978.5 969.6
12 17.03 В 3
{9}
н/о н/о +4.6 -5.6 48 +2 +2 978.8 970.0
13 17.03 В 4
{5}
н/о н/о +4.6 -5.7 47 +1 +1 979.6 970.7
14 17.03 СВ 3 н/о н/о +4.1 -5.5 50 +1 +1 980.6 971.7
15 17.03 С 3
{7}
н/о н/о +3.8 -5.2 52 +1 +1 981.6 972.7
16 17.03 В 3
{9}
н/о н/о +3.8 -5.2 52 +1 +1 982.9 974.0
17 17.03 В 2
{5}
н/о н/о +3.6 -4.5 55 +1 +1 984.4 975.4
18 17.03 СВ 2
{9}
н/о н/о +2.8 -2.7 67 0 0 986.0 977.1 +1.0 +5.1
19 17.03 В 2
{7}
н/о н/о +2.8 -2.9 66 0 0 987.4 978.5
20 17.03 С 3
{7}
н/о н/о +3.2 -3.5 61 -0 -0 988.5 979.6
21 17.03 С 3
{8}
н/о н/о +3.3 -3.5 61 -0 -0 989.8 980.8
22 17.03 СВ 3
{8}
н/о н/о +3.7 -4.0 57 0 0 991.0 982.0
23 17.03 СВ 4
{13}
н/о н/о +3.7 -3.6 59 -0 -0 992.4 983.5
00 18.03 С 3
{14}
н/о н/о +3.8 -3.7 58 +1 +1 993.8 984.8
01 18.03 С 4
{11}
н/о н/о +3.6 -3.0 62 -1 -1 995.1 986.0
02 18.03
{9}
н/о н/о +3.7 -3.0 62 996.3 987.2
03 18.03 В 3
{6}
н/о н/о +1.9 -0.5 84 -2 -2 997.8 988.7
04 18.03 СВ 3
{10}
н/о н/о +2.5 -1.1 77 -1 -1 999.3 990.3
05 18.03 СВ 4
{10}
н/о н/о +3.2 -2.6 66 -1 -1 1000.5 991.4
06 18.03 СВ 4
{11}
н/о н/о +3.3 -3.7 60 -1 -1 1002.0 992.9 +1.2 +3.9
07 18.03 В 3
{11}
н/о н/о +3.6 -6.1 49 0 0 1003.4 994.3
08 18.03 В 3
{12}
н/о н/о +3.2 -6.0 51 -0 -0 1004.5 995.4
09 18.03 ЮВ 2
{9}
н/о н/о +2.7 -3.3 65 0 0 1005.8 996.6
10 18.03 ЮВ 3
{7}
н/о н/о +1.1 -1.0 86 -3 -3 1007.6 998.3
11 18.03 СВ 2
{10}
н/о н/о +1.6 -1.8 78 -2 -2 1008.8 999.6
12 18.03 СВ 3
{12}
н/о н/о +4.8 -3.8 54 +2 +2 1009.6 1000.5
13 18.03 Ю 1
{9}
н/о н/о +2.6 -1.1 77 +1 +1 1010.5 1001.3
14 18.03 СВ 3
{7}
н/о н/о +5.0 -3.9 53 +2 +2 1011.1 1002.0
15 18.03 СВ 4
{9}
н/о н/о +5.1 -7.4 40 +2 +2 1012.0 1002.9
16 18.03 В 2
{8}
н/о н/о +5.9 -7.2 38 +4 +4 1013.0 1003.9
17 18.03 СВ 1
{7}
н/о н/о +3.0 -3.0 65 +2 +2 1014.2 1005.0
18 18.03 штиль 0
{9}
н/о н/о +1.7 -2.0 76 +1 +1 1015.0 1005.8 +1.1 +6.0
19 18.03 ЮВ 1
{6}
н/о н/о +2.1 -1.3 78 +1 +1 1016.1 1006.9
20 18.03 З 1
{2}
н/о н/о +0.3 -1.6 87 -2 -2 1016.7 1007.4
21 18.03 ЮЗ 1
{2}
н/о н/о +0.5 -1.6 86 -1 -1 1017.5 1008.2
22 18.03 штиль 0
{2}
н/о н/о +0.2 -1.5 88 -1 -1 1017.8 1008.4
23 18.03 штиль 0
{2}
н/о н/о -1.7 -2.9 91 -3 -3 1018.2 1008.8
00 19.03 штиль 0
{6}
н/о н/о -1.9 -2.6 95 -3 -3 1018.6 1009.2
01 19.03 штиль 0
{1}
н/о н/о -2.4 -3.3 94 -4 -4 1019.2 1009.7
02 19.03 ЮЗ 1
{1}
н/о н/о -3.2 -3.8 96 -6 -6 1019.4 1009.9
03 19.03 С 1
{2}
н/о н/о -3.8 -4.5 95 -6 -6 1019.3 1009.8
04 19.03 З 1
{3}
н/о н/о -3.4 -4.0 96 -6 -6 1019.2 1009.7
05 19.03 СВ 1
{3}
н/о н/о -3.5 -4.6 92 -6 -6 1019.4 1010.0
06 19.03 СЗ 1
{3}
н/о н/о -3.4 -4.8 90 -6 -6 1019.5 1010.0 -4.0 +3.0
07 19.03 З 1
{4}
н/о н/о -2.6 -4.5 87 -5 -5 1018.9 1009.5
08 19.03 СВ 1
{3}
н/о н/о +0.1 -3.4 77 -2 -2 1018.5 1009.2
09 19.03 Ю 1
{3}
н/о н/о +4.1 -5.7 49 +3 +3 1018.1 1008.8
10 19.03 З 4
{7}
н/о н/о +4.8 -6.0 45 +1 +1 1017.9 1008.7
11 19.03 З 3
{9}
н/о н/о +5.3 -6.4 43 +3 +3 1017.5 1008.3
12 19.03 СВ 4
{9}
н/о н/о +5.9 -7.5 38 +3 +3 1016.8 1007.6
13 19.03 В 3
{9}
н/о н/о +6.7 -9.0 32 +5 +5 1015.8 1006.7
14 19.03 З 4
{9}
н/о н/о +6.7 -9.7 30 +4 +4 1015.3 1006.2
15 19.03 В 2
{9}
н/о н/о +6.4 -8.5 34 +5 +5 1014.6 1005.5
16 19.03 СВ 3
{9}
н/о н/о +6.1 -4.7 46 +4 +4 1013.7 1004.6
17 19.03 СВ 6
{11}
н/о н/о +5.6 -2.7 55 +1 +1 1012.8 1003.7
18 19.03 З 5
{13}
н/о н/о +6.4 -2.5 53 +3 +3 1011.6 1002.6 -3.4 +6.9
19 19.03 З 2
{12}
н/о н/о +6.5 -1.3 57 +5 +5 1010.8 1001.7
20 19.03 З 3
{13}
н/о н/о +6.1 0.0 65 +3 +3 1010.4 1001.3
21 19.03 З 4
{11}
н/о н/о +5.5 +0.7 71 +2 +2 1009.9 1000.8
22 19.03 СЗ 2
{11}
н/о н/о +5.2 +1.2 75 +3 +3 1009.3 1000.2
23 19.03 Ю 4
{10}
н/о н/о +4.4 +1.6 82 0 0 1010.4 1001.3
00 20.03 З 2
{13}
н/о н/о +4.5 +2.1 84 +2 +2 1010.4 1001.3
01 20.03 З 2
{5}
н/о н/о +3.8 +1.9 87 +1 +1 1010.1 1000.9
02 20.03 СЗ 2
{7}
н/о н/о +4.3 +2.1 86 +2 +2 1010.3 1001.2
03 20.03 ЮЗ 3
{9}
н/о н/о +3.8 +1.7 86 0 0 1011.5 1002.3
04 20.03 ЮВ 2
{5}
н/о н/о +3.6 +1.5 86 +1 +1 1011.3 1002.1
05 20.03 ЮЗ 5
{11}
н/о н/о +4.3 +1.8 84 -1 -1 1011.2 1002.1
06 20.03 ЮЗ 5
{11}
н/о н/о +5.0 +1.0 75 +1 +1 1012.0 1002.9 +3.3 +6.5
07 20.03 ЮЗ 6
{10}
н/о н/о +5.8 +1.4 73 +1 +1 1012.6 1003.5
08 20.03 З 6
{13}
н/о н/о +5.5 +1.7 76 +1 +1 1013.9 1004.7
09 20.03 ЮЗ 5
{10}
н/о н/о +5.6 +1.1 73 +1 +1 1014.8 1005.7
10 20.03 З 7
{11}
н/о н/о +6.6 +1.0 67 +2 +2 1015.5 1006.4
11 20.03 ЮЗ 6
{12}
н/о н/о +7.5 +1.0 63 +4 +4 1015.9 1006.8
12 20.03 ЮЗ 8
{13}
н/о н/о +7.1 +1.0 65 +2 +2 1017.0 1007.9
13 20.03 З 4
{9}
н/о н/о +7.0 +1.3 67 +4 +4 1017.5 1008.4
14 20.03 ЮЗ 6
{11}
н/о н/о +7.1 +0.9 65 +3 +3 1017.7 1008.6
15 20.03 ЮЗ 6
{9}
н/о н/о +7.3 +1.0 64 +3 +3 1018.1 1008.9
16 20.03 ЮЗ 6
{11}
н/о н/о +7.2 +0.5 62 +3 +3 1018.0 1008.9
17 20.03 ЮЗ 6
{9}
н/о н/о +7.1 -0.4 59 +3 +3 1017.5 1008.4
18 20.03 Ю 5
{11}
н/о н/о +6.3 +1.1 69 +2 +2 1016.6 1007.5 +4.4 +8.3
19 20.03 З 2
{7}
н/о н/о +5.8 +1.4 73 +4 +4 1016.1 1007.0
20 20.03 ЮВ 1
{8}
н/о н/о +4.6 +1.9 83 +3 +3 1015.2 1006.1
21 20.03 СЗ 1
{5}
н/о н/о +5.6 +1.5 75 +5 +5 1014.1 1004.9
22 20.03 СВ 5
{11}
н/о н/о +5.9 +1.4 73 +2 +2 1012.5 1003.4
23 20.03 СЗ 3
{11}
н/о н/о +5.7 +1.7 75 +3 +3 1011.5 1002.4
00 21.03 Ю 2
{11}
н/о н/о +5.1 +2.2 82 +3 +3 1010.7 1001.6
01 21.03 СЗ 2
{4}
н/о н/о +4.6 +2.8 88 +2 +2 1009.8 1000.7
02 21.03 В 1
{3}
н/о н/о +4.4 +3.6 95 +3 +3 1009.3 1000.2
03 21.03 СВ 2
{3}
н/о н/о +5.4 +4.8 96 +3 +3 1008.9 999.8
04 21.03 В 1
{4}
н/о н/о +5.5 +4.8 95 +4 +4 1009.6 1000.5
05 21.03 ЮЗ 6
{11}
н/о н/о +6.9 +5.0 88 +2 +2 1011.4 1002.4
06 21.03 Ю 2
{11}
н/о н/о +6.9 +3.6 79 +5 +5 1013.3 1004.2 +4.3 +7.5
07 21.03 штиль 0
{8}
н/о н/о +5.7 +3.6 86 +5 +5 1014.7 1005.5
08 21.03 З 3
{5}
н/о н/о +5.5 +2.8 83 +2 +2 1015.7 1006.6
09 21.03 СЗ 1
{10}
н/о н/о +5.6 +2.3 79 +5 +5 1017.2 1008.0
10 21.03 З 2
{4}
н/о н/о +6.3 +2.9 79 +4 +4 1018.0 1008.8
11 21.03 Ю 3
{7}
н/о н/о +5.3 +2.0 79 +2 +2 1019.1 1009.9
12 21.03 ЮЗ 3
{10}
н/о н/о +4.5 +2.3 86 +1 +1 1020.4 1011.2
13 21.03 Ю 2
{8}
н/о н/о +5.3 -1.2 63 +3 +3 1022.1 1012.9
14 21.03 ЮВ 3
{8}
н/о н/о +3.1 -1.1 74 -1 -1 1023.1 1013.8
15 21.03
{5}
н/о н/о +3.9 -0.3 74 1023.1 1013.9
17 21.03 СВ 1
{2}
н/о н/о +4.2 +0.4 76 +3 +3 1025.6 1016.3
18 21.03 штиль 0
{8}
н/о н/о +1.6 +0.2 90 0 0 1025.4 1016.1 +1.6 +6.9
19 21.03 З 1
{2}
н/о н/о +1.4 -0.1 90 -1 -1 1025.3 1015.9
20 21.03 СЗ 1
{3}
н/о н/о +1.5 -0.4 87 -0 -0 1026.2 1016.8
21 21.03 В 1
{4}
н/о н/о +2.1 -0.7 82 +1 +1 1026.8 1017.4
22 21.03 СВ 2
{4}
н/о н/о +2.4 -1.5 75 -1 -1 1026.5 1017.1
23 21.03 ЮЗ 2
{7}
н/о н/о +3.5 -1.4 70 +1 +1 1026.1 1016.8
01 22.03 СЗ 1
{7}
н/о н/о +4.8 -2.0 61 +4 +4 1025.2 1016.0
02 22.03 СЗ 1
{3}
н/о н/о +4.3 -2.2 63 +3 +3 1024.9 1015.6
03 22.03 ЮЗ 1
{2}
н/о н/о +1.4 -1.6 80 -0 -0 1024.3 1015.0
04 22.03 СВ 1
{3}
н/о н/о +5.5 -4.3 49 +5 +5 1023.2 1014.0
05 22.03 В 3
{9}
н/о н/о +5.5 -5.1 46 +3 +3 1021.9 1012.7
06 22.03 СВ 5
{14}
н/о н/о +7.6 -8.6 31 +5 +5 1020.1 1010.9 +1.0 +7.7
07 22.03 СВ 8
{17}
н/о н/о +8.6 -10.7 24 +5 +5 1018.2 1009.1
08 22.03 ЮЗ 4
{14}
н/о н/о +9.6 -7.8 28 +8 +8 1017.1 1008.1
09 22.03 СВ 4
{12}
н/о н/о +9.1 -2.0 46 +7 +7 1015.5 1006.5
10 22.03 С 3
{15}
н/о н/о +9.2 +0.3 54 +7 +7 1013.9 1004.9
11 22.03 З 6
{19}
н/о н/о +10.2 +1.6 55 +7 +7 1012.3 1003.4
12 22.03 СВ 4
{19}
н/о н/о +10.9 +2.4 56 +9 +9 1010.8 1001.9
13 22.03 З 8
{17}
н/о н/о +10.8 +3.2 59 +7 +7 1009.2 1000.3
14 22.03 З 6
{20}
н/о н/о +10.9 +3.3 59 +8 +8 1007.8 998.9
15 22.03 З 4
{19}
н/о н/о +10.2 +4.1 66 +8 +8 1007.1 998.2
16 22.03 ЮЗ 6
{14}
н/о н/о +10.5 +3.7 63 +7 +7 1006.0 997.1
17 22.03 З 7
{16}
н/о н/о +9.2 +4.3 71 +5 +5 1005.9 996.9
18 22.03 ЮЗ 4
{20}
н/о н/о +8.0 +4.3 77 +5 +5 1006.1 997.1 +7.5 +11.4
19 22.03 ЮЗ 5
{11}
н/о н/о +7.0 +3.8 80 +3 +3 1006.2 997.2
20 22.03 ЮЗ 7
{10}
н/о н/о +6.7 +3.3 79 +2 +2 1005.7 996.7
21 22.03 ЮЗ 7
{16}
н/о н/о +6.5 +2.9 78 +2 +2 1005.6 996.6
22 22.03 ЮЗ 9
{14}
н/о н/о +7.0 +1.8 69 +2 +2 1005.3 996.3
23 22.03 ЮЗ 9
{17}
н/о н/о +6.9 -0.3 60 +2 +2 1005.2 996.2
00 23.03 ЮЗ 10
{19}
н/о н/о +6.2 +0.1 65 +1 +1 1004.6 995.6
01 23.03 ЮЗ 11
{19}
н/о н/о +5.2 -0.2 68 -1 -1 1005.0 995.9
02 23.03 ЮЗ 11
{20}
н/о н/о +5.6 -1.5 60 -0 -0 1004.1 995.0
03 23.03 ЮЗ 9
{20}
н/о н/о +4.5 -0.2 72 -2 -2 1004.1 995.0
04 23.03 З 9
{19}
н/о н/о +2.5 0.0 84 -5 -5 1005.1 995.9
05 23.03 ЮЗ 12
{22}
н/о н/о +2.8 -1.4 74 -5 -5 1005.1 995.9
06 23.03 ЮЗ 12
{22}
н/о н/о +4.0 -2.2 64 -3 -3 1004.7 995.6 +0.9 +7.9
07 23.03 ЮЗ 9
{21}
н/о н/о +3.7 -2.0 66 -3 -3 1005.2 996.0
08 23.03 ЮЗ 13
{20}
н/о н/о +4.0 -2.7 62 -3 -3 1005.0 995.9
09 23.03 З 7
{17}
н/о н/о +2.2 -1.0 79 -4 -4 1005.6 996.4
10 23.03 З 9
{18}
н/о н/о +4.2 -2.5 62 -2 -2 1005.4 996.3
11 23.03 З 11
{21}
н/о н/о +4.9 -3.1 56 -1 -1 1006.4 997.4
12 23.03 ЮЗ 8
{21}
н/о н/о +4.4 -2.6 60 -1 -1 1006.8 997.7
13 23.03 З 6
{15}
н/о н/о +2.5 -0.8 79 -3 -3 1008.0 998.8
14 23.03 З 9
{23}
н/о н/о +3.6 -2.1 66 -3 -3 1008.1 998.9
15 23.03 З 6
{16}
н/о н/о +2.7 -1.4 74 -3 -3 1009.9 1000.7
16 23.03 З 5
{15}
н/о н/о +3.7 -2.3 65 -1 -1 1011.2 1002.1
17 23.03 З 8
{16}
н/о н/о +3.8 -3.7 58 -2 -2 1012.5 1003.3
18 23.03 З 6
{23}
н/о н/о +4.2 -2.0 64 -1 -1 1013.2 1004.1 +1.3 +5.4
19 23.03 З 6
{18}
н/о н/о +4.0 -1.7 66 -1 -1 1014.9 1005.7
20 23.03 З 6
{14}
н/о н/о +4.4 -3.8 55 -0 -0 1015.6 1006.4
21 23.03 З 3
{13}
н/о н/о +2.9 -1.9 71 -1 -1 1016.4 1007.1
22 23.03 З 5
{14}
н/о н/о +4.5 -3.8 55 0 0 1016.9 1007.7
23 23.03 З 1
{10}
н/о н/о +3.6 -1.9 67 +2 +2 1016.2 1007.0
00 24.03 Ю 3
{18}
н/о н/о +3.3 -0.1 78 -1 -1 1016.1 1006.9
01 24.03 В 2
{7}
н/о н/о +2.6 0.0 83 -1 -1 1015.0 1005.8
02 24.03 СВ 1
{5}
н/о н/о +2.7 +0.5 85 +1 +1 1014.7 1005.4

 

Местоположение метеостанции Аэропорт Орста-Волда (Норвегия): широта 62.18 долгота 6.08 высота над уровнем моря 74 м.

В архиве по умолчанию представлена погода в Аэропорту Орста-Волда за последнюю неделю. Архивные данные за месяц целиком и за предыдущие месяцы, начиная с января 2011 года, Вы можете получить, выбрав интересующий диапазон дат из раскрывающегося списка и нажав кнопку "Ввод!".


*Определитесь, кто Вы:
робот инопланетянин человек

Внимание! Время в таблицах - всемирное. Для получения местного времени необходимо прибавить поправку, которая равна 1 ч.

Смотрите также архив погоды в соседних городах и на ближайших метеорологических станциях:

Погода в Фиске (Норвегия) (27 км)
Погода в Олесунне (Норвегия) (33 км)
Погода в Стрын-Крокене (Норвегия) (38 км)
Погода в Сандан аэропорту (Норвегия) (39 км)
Погода в Олесунн аэропорту (Норвегия) (43 км)
Погода на Маяке Svinoy (Норвегия) (45 км)
Погода в Берген аэропорту (Норвегия) (46 км)
Погода в Лебергсфелле (Норвегия) (56 км)
Погода на Маяке Krakenes (Норвегия) (59 км)
Погода в Рекдале (Норвегия) (63 км)

Пояснения к столбцам:

Ветер - указаны скорость ветра в м/с - средняя за 10 мин, порывы в срок и между сроками (в фигурных скобках) и направление, откуда дует ветер: С - северный, СВ - северо-восточный, В - восточный, ЮВ - юго-восточный, Ю - южный, ЮЗ - юго-западный, З - западный, СЗ - северо-западный.
Видимость - горизонтальная дальность видимости в метрах или километрах. При видимости от 1 до 10 км при отсутствии осадков обычно наблюдается дымка, при ухудшении видимости до 1 км и менее - туман. В сухую погоду видимость может ухудшаться дымом, пылью или мглою.
Явления - указаны атмосферные явления, наблюдавшиеся в срок или в последний час перед сроком; фигурными скобками обозначены явления, наблюдавшиеся между сроками (за 1-3 часа до срока); квадратными скобками обозначены град или гололедные отложения с указанием их диаметра в мм.
Облачность - указаны через наклонную черту общая и нижняя облачность в баллах и высота нижней границы облаков в метрах; квадратными скобками обозначены формы облаков: Ci - перистые, Cs - перисто-слоистые, Cc - перисто-кучевые, Ac - высококучевые, As - высокослоистые, Sc - слоисто-кучевые, Ns - слоисто-дождевые, Cu - кучевые, Cb - кучево-дождевые. Подробнее классификацию облаков см. в Атласе облаков (PDF).
T - Температура воздуха - температура, измеренная на высоте 2 м над землей.
Td - Температура точки росы - температура, при понижении до которой содержащийся в воздухе водяной пар достигнет насыщения.
f - Относительная влажность воздуха - влажноcть воздуха, измеренная на высоте 2 м над землей.
Te - Эффективная температура - температура, которую ощущает одетый по сезону человек в тени. Характеристика душности погоды. При расчете учитывается влияние влажности воздуха и скорости ветра на теплоощущения человека.
Tes - Эффективная температура на солнце - температура, которую ощущает человек, с поправкой на солнечный нагрев. Характеристика знойности погоды. Зависит от высоты солнца над горизонтом, облачности и скорости ветра. Ночью, в пасмурную погоду, а также при ветре 12 м/с и более поправка равна нулю.
P - Атмосферное давление - приведенное к уровню моря атмосферное давление.
Po - Атмосферное давление - измеренное на уровне метеостанции атмосферное давление.
Tmin - Минимальная температура - минимум температуры воздуха на высоте 2 м над землей.
Tmax - Максимальная температура - максимум температуры воздуха на высоте 2 м над землей.
R - Количество осадков - Количество выпавших осадков за период времени, мм. При наведении курсора мыши на число - период времени, за который выпало указанное количество осадков.
R24 - Количество осадков - Количество выпавших осадков за 24 часа, мм.
S - Снежный покров - Высота снежного покрова, см. При наведении курсора мыши на число - состояние снежного покрова и степень покрытия местности в баллах.